Skip Page Navigation
NASA JPL Caltech
NASA Logo - Jet Propulsion Laboratory + View the NASA Portal
+ Center for Near-Earth Object Studies
JPL Home Earth Solar System Stars & Galaxies Technology
JPL Solar System Dynamics
BODIES ORBITS EPHEMERIDES TOOLS PHYSICAL DATA DISCOVERY FAQ SITE MAP
JPL Small-Body Database Browser
Search: [ help ]  
434270 (2003 WQ24)
Classification: Inner Main-belt Asteroid          SPK-ID: 2434270
Ephemeris | Orbit Diagram | Orbital Elements | Mission Design | Physical Parameters | Discovery Circumstances ]

[ show orbit diagram ]
Orbital Elements at Epoch 2459000.5 (2020-May-31.0) TDB
Reference: JPL 13 (heliocentric ecliptic J2000)
 Element Value Uncertainty (1-sigma)   Units 
e .06968588577947234 1.1994e-07  
a 1.86758040065286 1.7934e-08 au
q 1.737436406168984 2.1589e-07 au
i 23.50935124583078 1.172e-05 deg
node 250.6499099823604 1.552e-05 deg
peri 22.06511002548882 0.00015339 deg
M 317.3705668014419 0.00013702 deg
tp 2459110.888655998763
(2020-Sep-18.38865600)
0.00035424 TDB
period 932.2177936182102
2.55
1.3428e-05
3.676e-08
d
yr
n .3861758512490248 5.5624e-09 deg/d
Q 1.997724395136736 1.9183e-08 au
  Orbit Determination Parameters
   # obs. used (total)      113  
   data-arc span      6004 days (16.44 yr)  
   first obs. used      2003-11-20  
   last obs. used      2020-04-28  
   planetary ephem.      DE431  
   SB-pert. ephem.      SB431-N16  
   condition code      0  
   norm. resid. RMS      .59132  
   source      ORB  
   producer      Otto Matic  
   solution date      2020-May-22 03:24:46  

Additional Information
 Earth MOID = .729139 au 
 Jupiter MOID = 3.0653 au 
 T_jup = 3.882 
[ show covariance matrix ]

Ephemeris | Orbit Diagram | Orbital Elements | Mission Design | Physical Parameters | Discovery Circumstances ]

Physical Parameter Table
Parameter Symbol Value Units Sigma Reference Notes
absolute magnitude H 17.7   n/a MPO456071  

434270 (2003 WQ24)          Discovered 2003-Nov-20 by LINEAR at Socorro
Reference: Last Updated: 2015-06-04

Alternate Designations
 2003 WQ24 = 2010 LC104 
Ephemeris | Orbit Diagram | Orbital Elements | Mission Design | Physical Parameters | Discovery Circumstances ]
ABOUT SSD CREDITS/AWARDS PRIVACY/COPYRIGHT GLOSSARY LINKS
FirstGov 2020-Aug-03 12:36 UT
(server date/time)  
NASA Home Page
Site Manager:   Ryan S. Park
Webmaster  Alan B. Chamberlin